Home > Weather > Santa Cruz > Past weeks

Flag for USA Past Weather in Santa Cruz, California, USA — Yesterday and Last 2 Weeks

Now
60 °F

Scattered clouds.


Feels Like: 60 °F
Forecast: 53 / 62 °F
Wind: 3 mph from North

Location: Watsonville Municipal Airport

Current Time: May 24, 2016 at 8:33:46 PM

Latest Report: May 24, 2016 at 7:53 PM


Visibility: 10 mi

Pressure: 30.01 "Hg

Humidity: 72%

Dew Point: 51 °F

Location of Santa CruzLocation

Past Weather in Santa Cruz — Graph

°F

Santa Cruz Temperature Yesterday

Maximum temperature yesterday: 65 °F (at 12:53 PM)
Minimum temperature yesterday: 47 °F (at 2:53 AM)
Average temperature yesterday: 56 °F

High & Low Weather Summary for the Past Weeks

 TemperatureHumidityPressure
High77 °F (May 17, 2:53 PM)100% (May 18, 6:53 AM)30.13 "Hg (May 18, 6:53 AM)
Low46 °F (May 21, 3:53 AM)42% (May 17, 2:53 PM)29.82 "Hg (May 19, 6:53 PM)
Average57 °F80%29.99 "Hg
* Reported May 9 6:53 PM — May 24 6:53 PM, Santa Cruz, Weather by CustomWeather, © 2016

Note: Actual official high and low records may vary slightly from our data, if they occured in-between our weather recording intervals... More about our weather records

Advertising

Santa Cruz Weather History for the Previous 24 Hours

Scroll right to see more
 ConditionsComfort  
Time TempWeatherWind HumidityBarometerVisibility
6:53 PM
Tue, May 24
61 °FOvercast.7 mph72%30.01 "Hg10 mi
5:53 PM62 °FScattered clouds.14 mph67%30.00 "Hg10 mi
4:53 PM64 °FSunny.15 mph65%30.00 "Hg10 mi
3:53 PM64 °FSunny.15 mph63%30.00 "Hg10 mi
2:53 PM64 °FSunny.14 mph61%30.01 "Hg10 mi
1:53 PM66 °FSunny.14 mph59%30.01 "Hg10 mi
12:53 PM66 °FMore clouds than sun.8 mph59%30.01 "Hg10 mi
11:53 AM63 °FOvercast.7 mph65%30.01 "Hg10 mi
10:53 AM59 °FOvercast.10 mph72%30.00 "Hg10 mi
9:53 AM59 °FOvercast.No wind72%29.99 "Hg10 mi
8:53 AM58 °FOvercast.No wind75%29.97 "Hg10 mi
7:53 AM55 °FMostly cloudy.5 mph83%29.96 "Hg10 mi
6:53 AM56 °FOvercast.No wind84%29.94 "Hg10 mi
5:53 AM54 °FOvercast.No wind90%29.93 "Hg10 mi
4:53 AM54 °FOvercast.No wind90%29.91 "Hg10 mi
3:53 AM55 °FOvercast.No wind90%29.91 "Hg10 mi
2:53 AM56 °FOvercast.No wind87%29.92 "Hg10 mi
1:53 AM56 °FOvercast.3 mph90%29.92 "Hg10 mi
12:53 AM57 °FOvercast.No wind87%29.93 "Hg10 mi
11:53 PM
Mon, May 23
56 °FLow clouds.No wind90%29.93 "Hg10 mi
10:53 PM56 °FPassing clouds.3 mph87%29.94 "Hg10 mi
9:53 PM56 °FLow clouds.7 mph90%29.93 "Hg10 mi
8:53 PM57 °FOvercast.5 mph87%29.91 "Hg10 mi
Weather by CustomWeather, © 2016

See weather overviewHow to use our weather pages